TimeEST,TemperatureF,Dew PointF,Humidity,Sea Level PressureIn,VisibilityMPH,Wind Direction,Wind SpeedMPH,Gust SpeedMPH,PrecipitationIn,Events,Conditions,WindDirDegrees,DateUTC
12:15 AM,30.2,28.4,93,29.77,3.0,SSE,4.6,-,N/A,,Overcast,150,2012-12-19 05:15:00
12:35 AM,30.2,28.4,93,29.77,7.0,SSW,5.8,-,N/A,,Overcast,200,2012-12-19 05:35:00
12:55 AM,32.0,28.4,87,29.76,8.0,South,3.5,-,N/A,,Overcast,190,2012-12-19 05:55:00
1:15 AM,30.2,28.4,93,29.76,6.0,Calm,Calm,-,N/A,,Overcast,0,2012-12-19 06:15:00
1:35 AM,30.2,28.4,93,29.75,2.0,SE,3.5,-,N/A,,Overcast,140,2012-12-19 06:35:00
1:55 AM,30.2,30.2,100,29.76,5.0,Calm,Calm,-,N/A,,Overcast,0,2012-12-19 06:55:00
2:15 AM,32.0,30.2,93,29.75,6.0,Calm,Calm,-,N/A,,Overcast,0,2012-12-19 07:15:00
2:35 AM,32.0,30.2,93,29.76,3.0,Calm,Calm,-,N/A,,Overcast,0,2012-12-19 07:35:00
2:55 AM,33.8,30.2,87,29.76,10.0,South,3.5,-,N/A,,Overcast,170,2012-12-19 07:55:00
3:15 AM,33.8,30.2,87,29.77,5.0,Calm,Calm,-,N/A,,Overcast,0,2012-12-19 08:15:00
3:35 AM,32.0,30.2,93,29.78,2.5,Calm,Calm,-,N/A,,Overcast,0,2012-12-19 08:35:00
3:55 AM,32.0,30.2,93,29.78,3.0,Calm,Calm,-,N/A,,Overcast,0,2012-12-19 08:55:00
4:15 AM,33.8,30.2,87,29.78,5.0,WSW,3.5,-,N/A,,Overcast,250,2012-12-19 09:15:00
4:35 AM,33.8,30.2,87,29.79,5.0,Calm,Calm,-,N/A,,Overcast,0,2012-12-19 09:35:00
4:55 AM,33.8,30.2,87,29.79,5.0,Calm,Calm,-,N/A,,Overcast,0,2012-12-19 09:55:00
5:15 AM,33.8,30.2,87,29.80,4.0,WSW,4.6,-,N/A,,Overcast,240,2012-12-19 10:15:00
5:35 AM,33.8,30.2,87,29.81,4.0,WSW,3.5,-,N/A,,Overcast,250,2012-12-19 10:35:00
5:55 AM,33.8,30.2,87,29.81,4.0,Calm,Calm,-,N/A,,Mostly Cloudy,0,2012-12-19 10:55:00
6:15 AM,33.8,32.0,93,29.82,3.0,Calm,Calm,-,N/A,,Overcast,0,2012-12-19 11:15:00
6:35 AM,33.8,30.2,87,29.84,4.0,Calm,Calm,-,N/A,,Overcast,0,2012-12-19 11:35:00
6:55 AM,33.8,30.2,87,29.86,4.0,Calm,Calm,-,N/A,,Overcast,0,2012-12-19 11:55:00
7:15 AM,33.8,32.0,93,29.88,4.0,West,3.5,-,N/A,,Overcast,270,2012-12-19 12:15:00
7:35 AM,33.8,32.0,93,29.88,3.0,Calm,Calm,-,N/A,,Overcast,0,2012-12-19 12:35:00
7:55 AM,33.8,32.0,93,29.89,3.0,Calm,Calm,-,N/A,,Overcast,0,2012-12-19 12:55:00
8:15 AM,33.8,32.0,93,29.90,2.5,Calm,Calm,-,N/A,,Overcast,0,2012-12-19 13:15:00
8:35 AM,33.8,32.0,93,29.90,2.5,Calm,Calm,-,N/A,,Overcast,0,2012-12-19 13:35:00
8:55 AM,35.6,32.0,87,29.91,2.0,West,4.6,-,N/A,,Overcast,260,2012-12-19 13:55:00
9:15 AM,33.8,32.0,93,29.92,1.8,SW,5.8,-,N/A,,Overcast,230,2012-12-19 14:15:00
9:35 AM,33.8,32.0,93,29.93,1.0,Calm,Calm,-,N/A,,Overcast,0,2012-12-19 14:35:00
9:55 AM,33.8,32.0,93,29.95,1.5,Calm,Calm,-,N/A,,Overcast,0,2012-12-19 14:55:00
10:15 AM,35.6,33.8,93,29.95,1.5,WSW,3.5,-,N/A,,Overcast,240,2012-12-19 15:15:00
10:35 AM,35.6,33.8,93,29.96,2.0,Calm,Calm,-,N/A,,Overcast,0,2012-12-19 15:35:00
10:55 AM,35.6,33.8,93,29.96,2.5,WSW,3.5,-,N/A,,Overcast,240,2012-12-19 15:55:00
11:15 AM,37.4,33.8,87,29.97,3.0,West,4.6,-,N/A,,Overcast,260,2012-12-19 16:15:00
11:35 AM,37.4,33.8,87,29.98,5.0,West,5.8,-,N/A,,Overcast,270,2012-12-19 16:35:00
11:55 AM,37.4,33.8,87,29.98,5.0,West,5.8,-,N/A,,Overcast,260,2012-12-19 16:55:00
12:15 PM,37.4,33.8,87,29.98,5.0,SW,3.5,-,N/A,,Overcast,230,2012-12-19 17:15:00
12:35 PM,37.4,33.8,87,29.99,5.0,WSW,4.6,-,N/A,,Overcast,250,2012-12-19 17:35:00
12:55 PM,37.4,33.8,87,30.00,7.0,West,4.6,-,N/A,,Overcast,260,2012-12-19 17:55:00
1:15 PM,37.4,33.8,87,30.00,4.0,Calm,Calm,-,N/A,,Overcast,0,2012-12-19 18:15:00
1:35 PM,37.4,35.6,93,30.01,2.5,WNW,4.6,-,N/A,,Overcast,290,2012-12-19 18:35:00
1:55 PM,37.4,35.6,93,30.01,1.8,West,6.9,-,N/A,,Overcast,270,2012-12-19 18:55:00
2:15 PM,37.4,35.6,93,30.02,4.0,West,5.8,-,N/A,,Overcast,280,2012-12-19 19:15:00
2:35 PM,37.4,35.6,93,30.03,4.0,West,5.8,-,N/A,,Overcast,280,2012-12-19 19:35:00
2:55 PM,37.4,35.6,93,30.03,4.0,WNW,5.8,-,N/A,,Overcast,290,2012-12-19 19:55:00
3:15 PM,37.4,35.6,93,30.04,4.0,West,8.1,-,N/A,,Overcast,270,2012-12-19 20:15:00
3:35 PM,37.4,35.6,93,30.04,5.0,West,5.8,-,N/A,,Overcast,260,2012-12-19 20:35:00
3:55 PM,37.4,33.8,87,30.05,5.0,West,5.8,-,N/A,,Mostly Cloudy,270,2012-12-19 20:55:00
4:15 PM,37.4,35.6,93,30.06,5.0,West,4.6,-,N/A,,Mostly Cloudy,280,2012-12-19 21:15:00
4:35 PM,37.4,33.8,87,30.07,6.0,WNW,4.6,-,N/A,,Overcast,290,2012-12-19 21:35:00
4:55 PM,37.4,33.8,87,30.07,6.0,West,3.5,-,N/A,,Overcast,280,2012-12-19 21:55:00
5:15 PM,37.4,33.8,87,30.08,5.0,Calm,Calm,-,N/A,,Overcast,0,2012-12-19 22:15:00
5:35 PM,35.6,33.8,93,30.08,5.0,Calm,Calm,-,N/A,,Overcast,0,2012-12-19 22:35:00
5:55 PM,35.6,33.8,93,30.09,5.0,West,3.5,-,N/A,,Overcast,270,2012-12-19 22:55:00
6:15 PM,35.6,32.0,87,30.10,7.0,West,4.6,-,N/A,,Mostly Cloudy,280,2012-12-19 23:15:00
6:35 PM,35.6,32.0,87,30.11,7.0,West,3.5,-,N/A,,Mostly Cloudy,280,2012-12-19 23:35:00
6:55 PM,35.6,33.8,93,30.11,5.0,West,3.5,-,N/A,,Mostly Cloudy,280,2012-12-19 23:55:00
7:15 PM,35.6,33.8,93,30.12,5.0,Calm,Calm,-,N/A,,Overcast,0,2012-12-20 00:15:00
7:35 PM,33.8,32.0,93,30.13,3.0,Calm,Calm,-,N/A,,Overcast,0,2012-12-20 00:35:00
7:55 PM,35.6,33.8,93,30.13,3.0,Calm,Calm,-,N/A,,Overcast,0,2012-12-20 00:55:00
8:15 PM,35.6,33.8,93,30.14,2.5,Calm,Calm,-,N/A,,Overcast,0,2012-12-20 01:15:00
8:35 PM,33.8,33.8,100,30.14,0.8,Calm,Calm,-,N/A,,Overcast,0,2012-12-20 01:35:00
8:55 PM,33.8,32.0,93,30.15,0.5,Calm,Calm,-,N/A,,Overcast,0,2012-12-20 01:55:00
9:15 PM,33.8,32.0,93,30.14,0.2,Calm,Calm,-,N/A,,Overcast,0,2012-12-20 02:15:00
9:35 PM,32.0,30.2,93,30.14,0.2,Calm,Calm,-,N/A,,Overcast,0,2012-12-20 02:35:00
9:55 PM,30.2,28.4,93,30.14,0.2,Calm,Calm,-,N/A,,Overcast,0,2012-12-20 02:55:00
10:15 PM,30.2,28.4,93,30.14,0.2,Calm,Calm,-,N/A,,Overcast,0,2012-12-20 03:15:00
10:35 PM,28.4,26.6,93,30.15,0.2,Calm,Calm,-,N/A,,Overcast,0,2012-12-20 03:35:00
10:55 PM,28.4,26.6,93,30.14,0.2,Calm,Calm,-,N/A,,Overcast,0,2012-12-20 03:55:00
11:15 PM,28.4,28.4,100,30.14,0.2,Calm,Calm,-,N/A,,Overcast,0,2012-12-20 04:15:00
11:35 PM,28.4,28.4,100,30.13,0.2,Calm,Calm,-,N/A,,Overcast,0,2012-12-20 04:35:00
11:55 PM,28.4,26.6,93,30.13,0.2,Calm,Calm,-,N/A,,Overcast,0,2012-12-20 04:55:00